Weather History for New River MCAS, NC

Change the Weather History Date:

Friday, May 31, 2013

  Actual Average Record
Temperature  
Mean Temperature 74 °F -  
Max Temperature 84 °F 80 °F 97 °F (2011)
Min Temperature 64 °F 61 °F 57 °F (1999)
Cooling Degree Days 9    
Growing Degree Days 24 (Base 50)    
Moisture  
Dew Point 67 °F    
Average Humidity 88    
Maximum Humidity 100    
Minimum Humidity 49    
Precipitation  
Precipitation 0.00 in - - ()
Sea Level Pressure  
Sea Level Pressure 30.22 in    
Wind  
Wind Speed 2 mph (SSE)    
Max Wind Speed 14 mph    
Max Gust Speed -    
Visibility 6 miles    
Events Fog    
Averages and records for this station are not official NWS values.
T = Trace of Precipitation, MM = Missing Value Source: NWS Daily Summary

Daily Weather History Graph

Daily Weather History Graph

Search for Another Location

Airport:

Trip Planner

Search our weather history database for the weather conditions in past years. The results will help you decide how hot, cold, wet, or windy it might be!

Date:

Astronomy

May. 31, 2013 Rise Set
Actual Time 5:58 AM EDT 8:17 PM EDT
Civil Twilight 5:29 AM EDT 8:46 PM EDT
Nautical Twilight 4:53 AM EDT 9:21 PM EDT
Astronomical Twilight 4:14 AM EDT 10:00 PM EDT
Moon 1:02 AM EDT (5/31) 12:58 PM EDT (5/31)
Length of Visible Light 15h 17m
Length of Day
14h 19m
Waning Gibbous, 51% of the Moon is Illuminated
May 31
Waning Gibbous
May 31
Last Quarter
Jun 8
New
Jun 16
First Quarter
Jun 23
Full

Hourly Weather History & Observations

Time (EDT) Temp. Heat Index Dew Point Humidity Pressure Visibility Wind Dir Wind Speed Gust Speed Precip Events Conditions
12:56 AM 70.0 °F - 69.1 °F 97% 30.23 in 10.0 mi Calm Calm - N/A   Clear
1:56 AM 70.0 °F - 69.1 °F 97% 30.23 in 9.0 mi Calm Calm - N/A   Clear
2:56 AM 68.0 °F - 66.9 °F 96% 30.22 in 7.0 mi Calm Calm - N/A   Clear
3:20 AM 66.2 °F - 66.2 °F 100% 30.21 in 1.5 mi Calm Calm - N/A   Clear
3:23 AM 66.2 °F - 66.2 °F 100% 30.21 in 0.8 mi Calm Calm - N/A   Mist
3:29 AM 66.2 °F - 66.2 °F 100% 30.22 in 0.2 mi Calm Calm - N/A Fog Fog
3:41 AM 66.2 °F - 66.2 °F 100% 30.22 in 0.8 mi Calm Calm - N/A   Mist
3:44 AM 66.2 °F - 66.2 °F 100% 30.22 in 1.2 mi Calm Calm - N/A   Scattered Clouds
3:47 AM 66.2 °F - 66.2 °F 100% 30.22 in 3.0 mi Calm Calm - N/A   Scattered Clouds
3:56 AM 64.9 °F - 64.9 °F 100% 30.23 in 8.0 mi Calm Calm - N/A   Partly Cloudy
4:07 AM 66.2 °F - 66.2 °F 100% 30.22 in 1.8 mi Calm Calm - N/A   Clear
4:15 AM 66.2 °F - 66.2 °F 100% 30.22 in 2.0 mi Calm Calm - N/A   Partly Cloudy
4:23 AM 64.4 °F - 64.4 °F 100% 30.23 in 6.0 mi Calm Calm - N/A   Clear
4:52 AM 64.4 °F - 64.4 °F 100% 30.23 in 6.0 mi Calm Calm - N/A   Scattered Clouds
4:56 AM 64.0 °F - 64.0 °F 100% 30.24 in 6.0 mi Calm Calm - N/A   Mostly Cloudy
5:06 AM 64.4 °F - 64.4 °F 100% 30.23 in 0.8 mi Calm Calm - N/A   Mist
5:13 AM 64.4 °F - 64.4 °F 100% 30.23 in 1.0 mi Calm Calm - N/A   Mist
5:18 AM 64.4 °F - 64.4 °F 100% 30.23 in 2.0 mi Calm Calm - N/A   Overcast
5:25 AM 64.4 °F - 64.4 °F 100% 30.24 in 6.0 mi Calm Calm - N/A   Overcast
5:42 AM 64.4 °F - 64.4 °F 100% 30.24 in 2.5 mi Calm Calm - N/A   Mostly Cloudy
5:45 AM 64.4 °F - 64.4 °F 100% 30.24 in 1.0 mi Calm Calm - N/A   Mist
5:47 AM 64.4 °F - 64.4 °F 100% 30.24 in 0.5 mi Calm Calm - N/A Fog Fog
5:54 AM 64.9 °F - 64.9 °F 100% 30.25 in 0.2 mi Calm Calm - N/A Fog Fog
6:03 AM 64.4 °F - 64.4 °F 100% 30.24 in 2.0 mi Calm Calm - N/A   Mostly Cloudy
6:56 AM 66.0 °F - 66.0 °F 100% 30.26 in 4.0 mi Calm Calm - N/A   Scattered Clouds
7:56 AM 73.0 °F - 70.0 °F 90% 30.26 in 10.0 mi Calm Calm - N/A   Clear
8:56 AM 77.0 °F - 71.1 °F 82% 30.26 in 9.0 mi Calm Calm - N/A   Scattered Clouds
9:36 AM 78.8 °F - 69.8 °F 74% 30.25 in 9.0 mi Calm Calm - N/A   Mostly Cloudy
9:56 AM 79.0 °F - 71.1 °F 77% 30.26 in 10.0 mi East 5.8 mph - N/A   Mostly Cloudy
10:56 AM 82.0 °F 84.9 °F 68.0 °F 62% 30.26 in 9.0 mi East 6.9 mph - N/A   Mostly Cloudy
11:03 AM 82.4 °F 85.4 °F 68.0 °F 62% 30.25 in 10.0 mi Variable 5.8 mph - N/A   Clear
11:56 AM 82.0 °F 85.9 °F 70.0 °F 67% 30.25 in 10.0 mi ESE 8.1 mph - N/A   Mostly Cloudy
12:56 PM 82.9 °F 85.0 °F 66.0 °F 56% 30.25 in 10.0 mi SSE 11.5 mph - N/A   Partly Cloudy
1:56 PM 84.9 °F 86.1 °F 64.0 °F 49% 30.23 in 10.0 mi SE 10.4 mph - N/A   Partly Cloudy
2:56 PM 84.0 °F 87.0 °F 68.0 °F 58% 30.22 in 10.0 mi South 13.8 mph - N/A   Scattered Clouds
3:56 PM 82.9 °F 86.5 °F 69.1 °F 63% 30.19 in 10.0 mi SSE 13.8 mph - N/A   Partly Cloudy
4:56 PM 82.0 °F 85.9 °F 70.0 °F 67% 30.18 in 10.0 mi SSE 12.7 mph - N/A   Scattered Clouds
5:56 PM 81.0 °F 83.8 °F 68.0 °F 65% 30.17 in 10.0 mi SSE 11.5 mph - N/A   Clear
6:56 PM 79.0 °F - 66.9 °F 66% 30.17 in 10.0 mi South 8.1 mph - N/A   Clear
7:56 PM 75.9 °F - 68.0 °F 76% 30.17 in 10.0 mi South 5.8 mph - N/A   Clear
8:56 PM 73.9 °F - 70.0 °F 87% 30.17 in 10.0 mi South 3.5 mph - N/A   Clear
9:56 PM 73.0 °F - 70.0 °F 90% 30.19 in 10.0 mi South 4.6 mph - N/A   Clear
10:56 PM 72.0 °F - 70.0 °F 93% 30.19 in 10.0 mi South 3.5 mph - N/A   Clear
11:56 PM 71.1 °F - 70.0 °F 96% 30.19 in 10.0 mi SSW 3.5 mph - N/A   Clear